Location: *
(51.1248°S, 108.4023°W)
Time: 02:57:17
(UTC+00:00)

Cosmos 2278 Rocket - Pass Details

Date: 01 November 2021
Orbit: 841 x 845 km, 71.0° (Epoch: 01 December)

Event Time Altitude Azimuth Distance (km) Brightness Sun altitude
Exits shadow 06:14:43 12° 298° (WNW) 2,370 4.4 -23.7°
Maximum altitude 06:19:47 42° 229° (SW) 1,214 3.3 -23.9°
Drops below altitude 10° 06:25:13 10° 159° (SSE) 2,499 5.4 -24.0°
Sets 06:27:50 0° 151° (SSE) 3,440 6.2 -24.0°
